STARLINK-32149, 60292

Orbit data source: Space-Track

STARLINK-32149, 60292 is a payload satellite owned by SpaceX/Seattle (US) in LEO that was launched on Sun, 28 Jul 2024 UTC via an FALCON 9 launch vehicle from the Air Force Eastern Test Range (AFETR). Payload-class satellites include a variety of spacecraft equipped with specific instruments for various scientific and technological missions. These include communications satellites like Starlink; space stations such as the ISS; scientific satellites like the Hubble; Earth observation satellites from companies like Planet Labs, Umbra, and HawkEye 360; GPS; miniature CubeSats for education and research; and military/defense satellites.

Loading next visibility...
Identifier
60292, 2024-132Q
Orbit
LEO
Country
Flag of USUS
Related business
Manufacturer
SpaceX/Seattle
Mission
Operational spacecraft
Bus & Motor
STARLINK V2M, Unknown motor
Mass
730 kg wet, ~700 kg dry
Launch date (UTC)
2024-07-28 (1 year ago)
Launch vehicle
FALCON 9
Launch site
Air Force Eastern Test Range (AFETR)
Object type
Payload
Rocket body
Debris
Shape & HBR
Unknown
Radar Cross Section
Large (>1 m²)

Expand to show TLE details & history
Last TLE update: 8 hours ago

TLE from 8 hours ago
0 STARLINK-32149
1 60292U 24132Q   25260.90312051  .00000093  00000-0  15254-4 0  9990
2 60292  53.1592 135.1760 0001176  81.9077 278.2058 15.30202381 65105
Epoch: 2025-09-17T21:40Z
TLE epoch observation values (Epoch: 2025-09-17T21:40:29.612Z)
Latitude
0.00007°
Longitude
172.98027°
Altitude
475.993 km
Speed
7.629 km/s
True Right ascension
09h 00m 42s
True Declination
0° 00' 00"
Sunlit
Object was in daylight at epoch
Visualization orbit readout
Latitude
Unknown
Longitude
Unknown
Altitude
Unknown
Speed
Unknown
Apparent Right ascension
Unknown
Apparent Declination
Unknown
Sunlit
N/A
Visualization observer readout
Local Sidereal Time
22:29:40
Azimuth
Unknown
Elevation
Unknown
Doppler factor
Unknown
Orbital elements
Apogee altitude
476.271 km
Perigee altitude
474.659 km
Semi-major axis
6,853.602 km
Eccentricity
0.00012
Inclination
53.1592°
RAAN
135.176°
Arg. of periapsis
81.9077°
True anomaly
278.19246°
Mean anomaly
278.2058°
Eccentric anomaly
278.19913°
Mean motion
3.82529 °/min
Orbital period
94.11 mins
BSTAR
0.000015254
Loading maneuver chart data...
Computing Atmospheric mass density...
Loading historical data...
Loading historical data...
Loading historical data...
Loading historical data...
Loading historical data...
Loading historical data...
Loading historical data...

Documentation

Showing up to 5 results
|